Regional Weather Roundup
Issued by NWS

Home | Current Version | Previous Version | Text Only | Print | Product List | Glossary On
Versions: 1 2 3 4 5 6 7 8 9 10 11 12 13 14 15 16 17 18 19 20 21 22 23 24 25 26 27 28 29 30 31 32 33 34 35 36 37 38 39 40 41 42 43 44 45 46 47 48 49 50
000
ASUS43 KMPX 161801
RWRMN
WEATHER ROUNDUP FOR MINNESOTA
NATIONAL WEATHER SERVICE TWIN CITIES/CHANHASSEN MN
100 PM CDT MON OCT 16 2017


NOTE: "FAIR" INDICATES FEW OR NO CLOUDS BELOW 12,000 FEET WITH NO
SIGNIFICANT WEATHER AND/OR OBSTRUCTIONS TO VISIBILITY. N/A MEANS
CURRENT SKY AND/OR WEATHER CONDITIONS ARE NOT AVAILABLE.

MNZ060>063-068>070-161900-
   Twin Cities Metro

CITY           SKY/WX    TMP DP  RH WIND       PRES   REMARKS
TWIN CITIES    SUNNY     58  36  43 SW10      30.18F
6HR MIN TEMP:  39; 6HR MAX TEMP:  58;

ST PAUL        SUNNY     57  36  45 SW9G21    30.19F
CRYSTAL        SUNNY     59  34  39 S12       30.15F
BLAINE         SUNNY     61  36  39 SW9G16    30.16F
LAKEVILLE      SUNNY     57  36  44 W7        30.18F
EDEN PRAIRIE   SUNNY     60  36  40 S12       30.16F
6HR MIN TEMP:  36; 6HR MAX TEMP:  60;

SOUTH ST PAUL  SUNNY     59  34  39 SW8       30.17F
LAKE ELMO      FAIR      59  36  41 SW13      30.19F
$$
MNZ001>005-007-008-013>017-022>024-027-028-161900-
   Northwest Minnesota

CITY           SKY/WX    TMP DP  RH WIND       PRES   REMARKS
BEMIDJI        SUNNY     59  33  38 SW16G23   29.98F
HALLOCK        SUNNY     63  34  34 SW18      29.82F
ROSEAU           N/A     61  37  41 SW20G29   29.84F
WARROAD        SUNNY     59  37  44 S14G24    29.86F
CROOKSTON      SUNNY     61  36  39 SW22G30   29.89F
FOSSTON        SUNNY     61  32  33 S20G28    29.94F
DETROIT LAKES  SUNNY     59  36  41 SW20      30.00F
MOORHEAD       SUNNY     63  39  42 S16G22    29.96F
PARK RAPIDS    SUNNY     60  36  40 SW17G28   30.01F
MAHNOMEN       FAIR      59  36  42 SW17G26   29.97F
$$
MNZ006-009>011-018-025>026-161900-
   North Central Minnesota

CITY           SKY/WX    TMP DP  RH WIND       PRES   REMARKS
BAUDETTE       MOSUNNY   60  34  37 S18G26    29.90F
FLAG ISLAND    SUNNY     55  37  50 S14G20    29.83F
INTL FALLS     CLOUDY    57  34  41 SW12G23   29.96F
6HR MIN TEMP:  30; 6HR MAX TEMP:  57;

WASKISH        MOSUNNY   61  36  39 SW12G23   29.94F
BIG FORK       CLOUDY    57  36  44 SW16      30.00F
LONGVILLE      SUNNY     61  34  36 SW7G16    30.03F
GRAND RAPIDS   SUNNY     56  34  43 SW10G18   30.05F
CRANE LAKE     CLOUDY    54  34  47 S10       30.02F
ORR            CLOUDY    55  30  38 SW13G20   29.99F
COOK           MOSUNNY   54  34  47 SW9       30.03F
WALKER         FAIR      57  34  41 S14G24    30.02F
$$
MNZ012-019>021-037-161900-
   Northeast Minnesota

CITY           SKY/WX    TMP DP  RH WIND       PRES   REMARKS
DULUTH         MOSUNNY   56  37  49 W15       30.08F
6HR MIN TEMP:  33; 6HR MAX TEMP:  56;

ELY            MOSUNNY   52  32  46 SW15      30.04F
HIBBING        SUNNY     54  33  45 SW10G20   30.04F
EVELETH        SUNNY     55  25  30 SW13G22   30.05F
DULUTH HARBOR  SUNNY     57  39  51 SW16G22   30.09F
TWO HARBORS    SUNNY     61  39  44 SW14G20   30.05F
SILVER BAY     CLOUDY    57  34  41 SW14      30.04
GRAND MARAIS     N/A     52  43  71 SW15      30.06F
G MARAIS ARPRT MOSUNNY   48  28  46 SW6       30.05F
$$
MNZ029>031-032-039>041-046>048-054>057-064-161900-
   West Central Minnesota

CITY           SKY/WX    TMP DP  RH WIND       PRES   REMARKS
FERGUS FALLS   SUNNY     63  37  39 SW16      30.04F
WHEATON        SUNNY     64  32  29 S14G22    30.04F
MORRIS         SUNNY     63  39  42 SW17G25   30.05F
ALEXANDRIA     SUNNY     60  37  42 S16       30.08F
ELBOW LAKE     FAIR      61  38  42 SW14      30.05F
WADENA         SUNNY     59  36  41 S15       30.04F
GLENWOOD       SUNNY     61  37  41 SW16      30.09F
APPLETON       SUNNY     66  32  28 SW13G21   30.06F
BENSON         SUNNY     64  36  34 SW12      30.09F
ORTONVILLE     SUNNY     66  36  32 NW13      30.05F
MADISON        SUNNY     68  36  30 S15G21    30.07F
WILLMAR        FAIR      64  37  36 SW10G18   30.12F
$$
MNZ033>034-036-042>043-049>051-058-059-161900-
   Central Minnesota

CITY           SKY/WX    TMP DP  RH WIND       PRES   REMARKS
ST CLOUD       SUNNY     60  36  40 S15       30.12F
6HR MIN TEMP:  30; 6HR MAX TEMP:  60;

SAUK CENTRE    FAIR      59  37  43 S17       30.09F
PAYNESVILLE    SUNNY     60  37  42 S14G21    30.11F
AITKIN         SUNNY     57  34  41 S12G18    30.06F
PINE RIVER     SUNNY     57  36  44 S12G18    30.08F
BRAINERD       SUNNY     58  34  40 SW16      30.08F
STAPLES        SUNNY     59  30  33 S15       30.06F
LONG PRAIRIE   FAIR      59  34  38 S15G21    30.08F
LITTLE FALLS   SUNNY     59  25  27 SW10G18   30.10F
LITCHFIELD     SUNNY     63  37  39 SW7G21    30.13F
BUFFALO        SUNNY     59  33  38 S10       30.15F
MAPLE LAKE     SUNNY     61  37  41 SW8       30.14F
HUTCHINSON     SUNNY     62  38  40 S10G18    30.16F
$$
MNZ037-044-045-052-053-161900-
   East Central Minnesota

CITY           SKY/WX    TMP DP  RH WIND       PRES   REMARKS
PRINCETON      SUNNY     61  36  39 S8G17     30.13F
MORA           SUNNY     55  36  47 SW10      30.14F
CAMBRIDGE      SUNNY     61  39  44 S13       30.14F
RUSH CITY      MOSUNNY   57  37  47 S7        30.14F
MOOSE LAKE     SUNNY     55  32  41 SW7G18    30.08F
HINCKLEY       FAIR      57  37  47 SW14      30.13F
CLOQUET        SUNNY     55  34  44 SW16G22   30.08F
MCGREGOR       SUNNY     55  36  47 SW12G17   30.08F
$$
MNZ071>073-080-081-089-090-097-098-161900-
   Southwest Minnesota

CITY           SKY/WX    TMP DP  RH WIND       PRES   REMARKS
MONTEVIDEO     SUNNY     66  36  32 W15G22    30.09F
GRANITE FALLS  SUNNY     66  38  35 S15G25    30.13F
CANBY          SUNNY     66  34  30 SW15G23   30.08F
MARSHALL       SUNNY     65  36  34 SW16G26   30.11F
REDWOOD FALLS  SUNNY     65  33  30 SW20G26   30.13F
OLIVIA         SUNNY     63  36  36 SW13      30.12F
PIPESTONE      SUNNY     64  36  34 SW15      30.13F
WORTHINGTON    SUNNY     64  34  32 SW16G22   30.17F
JACKSON        SUNNY     63  32  31 S15G22    30.19F
TRACY          SUNNY     64  38  38 SW17G24   30.13F
SLAYTON        SUNNY     62  34  35 SW16G22   30.16F
$$
MNZ065>067-074>077-082>085-091>093-161900-
   South Central Minnesota

CITY           SKY/WX    TMP DP  RH WIND       PRES   REMARKS
MANKATO        SUNNY     62  34  35 SW9       30.19F
NEW ULM          N/A     64  36  34 SW14      30.16F
ST JAMES       SUNNY     63  34  34 SW16G23   30.19F
FAIRMONT       SUNNY     63  35  35 SW18      30.20F
GLENCOE        SUNNY     62  34  34 S12G18    30.15F
FARIBAULT      SUNNY     61  36  39 S12       30.20F
OWATONNA       SUNNY     63  36  36 SW15      30.20F
WASECA         SUNNY     63  34  34 SW13G18   30.21F
ALBERT LEA     SUNNY     64  34  32 SW7G16    30.21F
$$
MNZ078>079-086>088-094>096-161900-
   Southeast Minnesota

CITY           SKY/WX    TMP DP  RH WIND       PRES   REMARKS
ROCHESTER      SUNNY     59  38  45 SW12      30.24F
6HR MIN TEMP:  33; 6HR MAX TEMP:  59;

RED WING       SUNNY     61  30  31 SW9       30.18F
STANTON        SUNNY     60  35  38 SW9G16    30.18F
DODGE CENTER   SUNNY     61  30  31 W9        30.21F
WINONA         SUNNY     59  34  38 W9G16     30.22F
AUSTIN         SUNNY     61  34  36 SW13      30.22F
PRESTON        SUNNY     58  32  37 SW12G17   30.24F
$$
ABBREVIATIONS USED IN REMARKS
   TC - TEMPERATURES IN CELSIUS
  WCI - WIND CHILL INDEX
   HX - HEAT INDEX
  VSB - VISIBILITY
$$




USA.gov is the U.S. government's official web portal to all federal, state and local government web resources and services.